Location: Asheville, NC
(35.6000°N, 82.5500°W)
Time: 03:46:45
(UTC-05:00)

Vanguard 1 Rocket - Pass Details

Date: 15 December 2017
Orbit: 656 x 4222 km, 34.3° (Epoch: 20 January)

Event Time Altitude Azimuth Distance (km) Brightness Sun altitude
Rises 19:50:13 0° 274° (W) 5,007 12.3 -30.0°
Reaches altitude 10° 19:52:49 10° 273° (W) 4,349 11.7 -30.5°
Maximum altitude 20:05:59 84° 188° (S) 3,010 9.8 -33.1°
Enters shadow 20:14:32 48° 107° (ESE) 4,241 10.2 -34.9°
